Vorticity
nan nan nan nan nan nan nan nan nan nan nan nan nan nan nan nan nan nan nan nan nan nan nan nan nan nan nan nan nan nan nan nan nan nan nan nan nan nan nan nan nan nan nan nan nan nan nan nan nan nan nan nan nan nan nan nan nan nan nan nan nan nan nan nan nan nan nan nan nan nan nan nan nan nan nan nan nan nan nan nan nan nan nan nan nan nan nan nan nan nan nan nan nan nan nan nan nan nan nan nan nan nan nan
nan 14 17 16 12 6 4 4 4 4 4 4 4 4 5 4 4 4 4 2 4 7 11 11 8 6 5 4 4 4 4 3 3 3 4 4 3 3 4 5 6 6 6 5 5 5 5 4 5 5 5 6 8 9 10 10 8 6 5 4 5 5 15 21 12 6 5 4 3 3 3 3 3 3 2 3 3 4 4 6 6 6 6 6 7 7 7 6 6 7 7 7 5 4 4 5 5 5 4 5 6 6 nan
nan 13 16 15 12 7 5 6 6 6 5 4 4 4 4 4 4 4 4 2 3 4 7 9 9 7 5 4 4 4 3 3 3 3 3 3 3 3 3 4 6 7 7 6 6 5 3 4 4 5 5 6 9 13 13 11 9 6 4 4 5 8 16 19 12 7 5 4 3 3 3 3 3 3 3 3 3 4 5 6 6 6 6 7 7 7 7 6 7 7 7 6 4 4 5 5 5 5 4 5 6 6 nan
nan 10 11 12 12 10 8 8 8 7 6 4 4 4 3 4 4 4 3 3 3 3 4 6 7 7 6 5 4 4 4 3 3 3 2 2 3 3 3 4 6 7 7 7 6 3 1 3 4 5 5 8 13 19 17 11 8 5 3 4 6 11 19 19 11 6 4 4 3 4 4 4 4 4 4 4 4 4 4 5 5 6 6 7 7 7 7 7 7 7 7 6 4 3 4 5 5 5 4 5 5 5 nan
nan 7 8 10 12 13 12 11 9 8 6 5 5 5 4 4 4 4 4 4 3 3 3 4 5 7 6 5 5 5 4 4 4 3 2 3 3 3 4 5 7 7 7 6 5 4 4 5 4 4 5 8 14 21 18 11 7 4 3 6 10 17 21 13 8 4 3 3 4 4 4 5 5 5 4 4 4 4 4 4 4 4 5 6 6 7 7 6 6 5 5 5 4 3 4 4 5 5 4 5 5 5 nan
nan 4 6 8 11 13 14 12 10 8 6 6 6 6 5 5 5 5 4 4 4 3 3 2 3 7 7 5 5 5 5 5 4 4 4 3 3 4 5 6 7 7 6 5 4 4 6 5 5 5 6 8 12 17 15 10 7 4 4 8 14 19 17 10 5 3 3 3 4 4 4 5 5 5 5 5 5 5 4 4 3 3 4 5 6 7 6 6 5 4 6 6 4 3 3 5 6 5 5 5 5 5 nan
nan 3 4 6 8 12 14 13 10 7 5 5 6 6 7 7 7 6 4 3 4 4 4 3 3 5 6 5 5 5 5 5 5 4 4 3 3 4 5 7 7 6 4 3 3 4 6 6 6 6 6 8 10 12 12 10 8 5 4 9 17 18 12 7 4 3 3 3 4 4 4 5 5 5 5 5 5 5 5 6 4 2 2 4 6 6 5 5 5 7 12 14 9 6 5 7 7 6 5 5 5 5 nan
nan 3 3 4 6 9 12 12 10 7 5 5 5 5 6 8 9 7 5 3 4 5 5 4 4 5 6 6 5 5 4 4 4 4 4 3 3 4 4 6 6 5 4 3 3 5 6 5 5 5 5 7 9 10 10 8 7 6 5 10 17 16 10 6 4 3 4 4 4 4 4 4 4 5 5 5 5 5 6 6 4 3 3 5 6 6 4 4 6 10 18 21 15 10 7 9 9 7 6 5 5 5 nan
nan 3 3 3 4 6 9 11 10 9 7 5 4 4 5 7 8 8 7 5 7 8 6 6 6 6 6 6 5 4 4 4 4 4 4 3 3 3 3 5 5 5 4 3 4 5 5 4 5 5 5 7 9 11 10 6 6 6 6 10 14 16 12 6 4 4 4 4 4 4 4 4 5 5 4 4 5 5 7 7 5 4 4 6 7 6 4 4 6 10 17 19 15 10 8 9 9 7 6 5 5 5 nan
nan 4 4 3 3 4 6 8 9 10 9 8 5 4 4 5 6 6 7 9 12 11 8 7 7 7 7 6 5 4 4 4 4 4 4 3 3 3 4 5 5 5 4 4 4 5 4 5 7 6 6 6 8 11 10 6 6 5 7 12 15 15 10 6 5 5 5 5 5 5 5 5 5 5 4 4 4 5 7 7 5 4 4 5 7 6 5 5 6 7 9 10 9 8 8 8 8 7 6 6 6 5 nan
nan 5 5 4 3 3 4 6 7 9 10 10 8 6 5 4 4 5 6 10 13 12 9 8 8 8 7 6 5 5 5 4 4 4 4 4 4 4 5 5 4 4 4 4 4 5 5 7 8 6 6 6 7 9 10 8 6 5 9 14 16 13 9 6 5 5 5 5 5 6 6 7 6 5 4 4 4 4 6 6 5 4 4 6 8 6 5 5 5 5 4 4 5 5 7 7 7 7 6 6 6 6 nan
nan 5 5 4 3 3 3 4 5 6 9 10 9 8 7 6 5 4 5 9 11 12 9 8 7 8 7 6 6 6 5 5 4 4 4 4 5 4 5 4 4 4 4 4 5 5 6 7 7 7 6 6 6 7 9 10 8 5 11 16 14 12 9 6 5 5 4 4 5 6 7 7 6 5 4 3 3 4 5 5 5 4 4 5 8 6 5 5 5 4 3 2 2 4 6 6 6 6 6 5 5 5 nan
nan 5 5 4 4 3 3 4 4 5 6 7 9 10 10 9 7 5 4 7 9 10 10 8 7 7 7 6 7 7 6 6 5 5 4 5 5 5 5 4 4 4 4 4 5 5 6 7 7 7 6 6 6 7 9 11 9 7 12 18 13 11 8 6 5 4 4 4 5 6 6 6 5 4 4 3 3 3 5 6 5 4 4 6 7 6 6 5 5 4 3 3 3 4 5 6 6 6 6 6 5 5 nan
nan 5 5 5 5 5 4 4 4 4 5 5 7 10 13 12 10 7 5 6 7 9 10 9 8 8 7 7 7 8 8 7 6 5 4 5 5 5 5 4 4 4 3 4 5 6 6 6 7 7 7 6 7 8 9 10 11 12 13 16 13 10 7 5 5 4 4 4 5 5 5 5 4 4 3 3 3 3 5 5 5 4 4 6 7 6 6 5 5 5 5 4 3 4 5 6 6 6 7 6 5 5 nan
nan 5 6 6 6 6 6 5 5 5 5 5 6 10 13 15 13 9 6 5 6 7 9 10 9 9 8 7 8 8 8 7 7 6 6 7 7 6 5 5 4 4 3 3 5 5 6 6 6 7 7 7 7 8 9 10 13 16 15 14 12 10 7 5 4 4 4 4 5 5 5 4 3 3 3 3 3 4 5 5 5 4 5 6 6 7 7 5 5 5 5 4 4 4 4 5 5 6 6 6 6 5 nan
nan 6 6 6 6 6 6 6 6 6 6 5 6 8 11 13 13 11 8 6 6 6 8 9 9 9 7 7 7 7 8 8 8 7 8 9 9 8 6 5 4 4 4 3 5 6 6 6 6 6 7 7 7 7 9 11 13 16 16 14 12 9 6 5 4 4 4 5 5 6 5 4 3 3 3 4 4 4 5 5 4 4 4 5 6 8 8 6 5 5 5 5 4 4 4 4 5 5 6 6 5 5 nan
nan 6 5 6 6 6 6 6 6 6 6 5 5 6 7 9 10 10 10 9 8 7 7 7 8 8 7 7 6 4 6 9 10 12 14 13 12 9 7 5 4 2 3 5 5 6 6 6 5 6 6 6 6 7 8 11 14 15 16 14 11 8 5 4 4 4 5 5 6 6 5 4 4 4 4 5 5 5 5 5 4 4 4 4 5 7 7 5 5 5 5 5 5 4 4 4 4 5 5 5 5 4 nan
nan 7 6 6 6 6 6 6 6 6 6 5 5 4 4 5 6 7 8 9 9 8 7 7 7 7 7 6 4 2 4 8 10 13 18 18 14 10 7 4 4 3 3 5 5 5 5 5 5 6 6 6 7 7 8 11 15 15 15 14 10 7 5 4 4 4 5 6 6 6 4 4 4 4 5 5 6 6 5 5 5 4 4 4 5 7 5 4 5 5 5 6 5 5 5 4 4 4 5 5 4 4 nan
nan 10 9 8 7 7 7 7 7 7 6 6 5 5 4 3 3 4 6 8 8 8 8 8 8 8 7 5 3 2 4 7 7 9 14 17 15 12 7 4 5 5 5 6 5 5 4 5 5 5 6 7 7 8 8 11 14 15 15 14 10 7 5 4 4 4 5 6 6 5 4 4 4 4 5 5 6 6 6 5 5 5 4 5 6 7 4 4 4 4 5 6 6 6 5 5 5 5 5 5 4 4 nan
nan 15 13 12 10 9 9 9 9 9 8 7 7 8 7 4 3 4 5 6 7 7 8 9 9 10 8 6 4 4 5 6 7 7 9 11 12 11 7 6 6 6 6 7 6 5 5 5 5 6 6 7 8 8 8 11 14 15 15 14 10 7 5 5 5 5 5 6 6 5 4 4 4 4 5 5 6 6 6 6 6 6 6 6 7 8 5 5 4 4 5 6 6 6 6 6 5 5 5 5 5 5 nan
nan 14 15 14 13 12 12 12 11 11 11 10 7 7 8 8 8 8 7 7 8 8 9 9 9 10 10 8 7 6 6 6 7 7 7 8 8 7 7 7 7 6 7 7 6 6 5 6 6 6 7 7 8 9 9 10 14 16 17 14 10 7 6 5 5 5 5 6 6 6 5 4 4 4 4 5 5 6 6 7 8 8 7 7 8 7 5 5 5 4 5 6 6 6 6 6 6 5 5 5 5 5 nan
nan 10 11 12 12 12 12 12 12 11 12 11 8 6 7 9 10 11 10 9 10 11 11 10 9 9 9 9 8 8 7 7 7 6 6 7 7 6 6 6 6 6 6 6 6 6 6 6 6 7 7 7 8 9 11 11 12 15 18 15 11 8 6 5 5 5 5 6 6 5 5 4 4 4 4 4 4 5 6 7 8 9 8 8 8 6 6 6 5 5 6 6 6 6 6 6 6 6 5 5 5 6 nan
nan 8 8 9 9 10 10 10 10 10 10 11 8 7 7 7 8 9 9 9 10 11 10 8 7 7 8 8 8 7 8 8 6 6 6 6 6 6 6 5 5 5 6 5 5 5 6 6 6 6 7 7 8 9 12 14 13 15 17 15 11 8 6 5 5 5 5 6 5 5 4 4 4 4 4 4 4 4 5 7 8 8 8 8 8 7 7 6 5 5 6 6 6 6 6 6 6 6 5 5 6 6 nan
nan 8 8 8 8 8 8 8 8 8 9 9 8 7 7 7 7 6 6 7 8 9 9 7 6 6 8 8 7 7 8 8 7 5 5 5 6 6 7 6 5 4 5 5 5 5 5 5 6 6 7 7 8 9 12 15 15 15 16 15 12 9 7 5 5 5 5 5 5 5 5 4 4 4 4 4 4 5 5 6 6 6 7 7 7 8 8 6 5 5 6 6 6 6 6 6 6 6 6 5 5 5 nan
nan 8 8 8 8 8 8 8 8 8 8 8 7 7 7 6 6 6 6 6 6 7 8 8 6 6 6 7 6 7 7 8 7 5 3 4 5 5 7 7 5 4 4 5 5 5 5 5 6 6 7 7 8 9 12 15 16 15 16 14 12 10 7 6 5 5 5 5 5 5 5 4 4 3 4 4 5 5 5 4 4 4 5 5 5 6 7 7 6 6 6 6 6 6 6 6 5 5 6 5 5 5 nan
nan 8 8 8 8 8 8 8 8 7 8 8 7 7 7 7 7 7 6 6 6 7 7 8 7 6 6 6 6 6 7 8 9 7 5 5 5 4 5 6 6 6 5 5 5 6 6 6 6 6 6 7 7 9 13 15 15 15 14 13 11 10 8 7 5 5 5 5 6 5 5 4 3 3 4 4 5 5 5 4 3 3 3 3 3 4 6 7 6 6 6 6 6 6 6 5 5 5 6 5 5 5 nan
nan 7 8 8 8 9 8 8 8 8 8 7 7 8 8 7 7 7 7 7 7 7 7 8 8 8 8 9 8 7 7 8 11 10 8 6 6 6 5 5 5 6 5 5 5 6 7 7 6 6 6 6 7 7 14 17 15 14 13 11 10 10 9 8 7 5 5 6 6 5 5 4 3 3 4 5 5 5 5 5 4 3 3 3 3 3 4 5 6 6 6 6 6 6 5 5 5 6 6 5 5 4 nan
nan 7 8 8 9 8 8 8 8 8 8 7 7 7 8 8 7 7 7 8 8 8 8 9 9 10 9 11 11 10 8 9 10 11 10 8 9 9 7 6 6 6 5 5 5 5 6 7 6 6 5 5 6 6 11 17 17 16 13 10 9 9 10 9 8 7 6 6 6 6 5 4 3 3 4 5 6 6 6 5 5 5 5 4 3 3 3 4 5 5 6 6 6 6 5 5 5 5 5 5 5 5 nan
nan 7 8 8 8 8 8 8 8 8 9 8 7 7 8 8 8 7 7 8 8 8 8 8 8 9 8 9 10 11 10 10 11 11 8 7 9 9 9 8 8 7 6 5 5 5 5 5 6 6 6 5 5 5 8 15 19 17 13 9 8 8 9 10 10 9 7 6 6 5 5 4 4 4 5 6 7 7 7 6 6 6 6 5 4 4 4 4 5 5 6 7 6 6 5 5 5 5 4 4 5 5 nan
nan 8 7 8 8 8 8 8 8 8 9 8 8 7 7 8 8 8 7 7 8 8 8 8 8 8 8 8 8 9 9 9 10 11 8 6 6 7 8 7 8 8 8 7 7 7 7 6 5 5 7 7 6 6 6 12 19 20 14 10 8 7 8 9 10 11 9 6 6 5 5 4 5 5 6 7 7 8 7 6 6 6 6 6 6 5 4 4 5 5 6 6 6 6 5 5 5 5 4 5 5 5 nan
nan 8 7 7 7 7 7 7 8 9 9 8 7 7 7 8 8 8 8 8 8 8 8 8 8 8 9 8 9 9 9 9 10 11 10 8 7 6 5 4 5 7 8 8 8 8 10 9 7 5 5 7 7 7 7 9 17 23 19 11 7 6 7 8 10 12 11 8 7 6 5 5 6 7 7 8 8 8 7 7 6 6 6 6 6 6 6 5 5 6 6 6 6 6 6 5 5 5 5 5 5 5 nan
nan 7 7 7 7 7 8 7 7 8 8 8 8 7 8 8 8 8 8 8 8 8 7 7 7 8 8 7 8 9 9 9 8 10 10 11 10 10 8 5 4 5 6 7 8 8 8 10 9 7 5 4 4 6 7 7 12 21 25 18 9 6 6 7 9 11 12 11 10 8 7 6 7 7 8 8 8 8 7 6 6 6 5 6 6 6 6 6 6 6 6 6 6 6 6 5 5 4 4 5 5 5 nan
nan 7 7 8 8 8 8 7 7 7 7 8 8 8 8 8 8 8 8 8 8 8 7 6 6 7 7 7 7 8 9 9 7 8 9 9 11 11 12 10 6 5 5 6 7 8 7 9 10 8 7 6 4 4 5 7 9 14 24 26 18 10 6 6 7 9 11 11 11 11 9 7 7 7 8 8 8 8 6 6 6 6 5 5 6 6 6 7 7 7 6 6 6 6 6 5 5 4 4 5 5 5 nan
nan 7 7 7 8 8 8 8 7 7 7 7 8 8 8 8 8 8 8 8 8 8 8 7 6 6 7 7 7 7 8 9 8 7 7 6 7 9 10 11 10 8 5 5 7 8 9 9 10 10 9 8 6 4 4 6 7 10 17 24 23 17 9 6 6 7 8 10 11 11 11 9 7 7 8 8 8 8 7 6 6 6 6 5 6 6 6 7 8 8 7 6 6 6 5 5 4 4 4 5 5 6 nan
nan 8 7 7 7 8 7 8 8 8 8 8 8 9 9 8 8 9 8 8 8 8 8 8 7 7 7 7 7 6 7 8 9 8 8 6 6 7 8 9 10 10 9 7 7 7 9 10 10 11 11 9 8 6 5 5 6 7 13 20 22 21 15 9 7 7 7 8 9 10 11 10 8 7 7 7 8 7 7 6 6 6 6 5 6 6 6 7 8 8 8 7 6 6 5 5 4 4 4 5 5 6 nan
nan 9 8 8 7 7 7 8 8 8 8 8 9 10 9 8 8 8 8 8 8 8 9 8 8 8 8 7 7 7 7 8 8 9 10 10 9 8 8 8 8 9 10 9 8 7 7 8 9 11 12 11 10 8 6 6 6 6 10 16 19 21 20 16 13 11 9 7 8 9 11 11 10 8 7 7 7 7 7 6 6 6 6 6 5 5 6 6 8 8 8 7 6 6 5 5 4 4 5 5 6 6 nan
nan 9 9 9 8 8 8 8 9 9 8 8 9 10 10 9 8 8 8 8 8 7 8 9 8 8 7 7 7 7 7 7 7 8 9 10 10 10 10 10 9 9 9 9 9 9 7 6 6 9 11 12 11 10 8 7 7 6 7 11 14 17 17 16 17 16 14 10 8 8 9 10 10 10 9 8 8 7 8 7 7 6 6 6 6 5 5 6 6 7 7 6 6 6 5 5 5 4 4 5 6 6 nan
nan 9 9 9 9 8 8 8 9 9 9 8 9 9 9 9 8 8 8 7 7 7 8 8 8 8 7 7 7 8 7 6 6 6 6 8 9 9 9 10 10 10 9 8 8 9 9 7 6 7 8 10 10 9 9 8 8 6 6 7 9 11 13 13 13 15 17 17 13 10 8 9 10 11 11 10 10 9 9 9 8 7 7 6 6 5 5 5 6 6 6 6 6 6 5 5 5 4 4 5 5 6 nan
nan 8 8 9 9 9 9 8 8 8 9 9 9 9 9 9 8 8 9 9 8 7 7 7 7 7 7 7 7 8 8 7 6 6 6 6 7 7 7 7 8 8 9 8 8 9 10 9 7 6 7 8 9 9 8 8 9 7 5 6 6 7 10 12 11 10 13 18 19 17 11 8 9 10 11 12 12 11 11 10 9 9 8 7 6 6 5 5 5 6 6 5 6 6 5 5 5 4 4 4 5 5 nan
nan 8 8 9 9 9 9 8 8 9 9 9 8 9 9 9 8 8 8 9 9 9 7 6 6 7 7 7 7 8 9 8 7 7 7 6 6 6 7 6 6 7 8 8 8 8 9 9 8 7 6 7 8 8 8 8 8 8 6 5 5 6 8 10 10 9 8 12 17 21 19 11 9 8 10 12 13 14 13 12 10 10 9 8 7 6 6 6 6 6 6 5 6 6 6 5 5 5 4 4 5 5 nan
nan 8 8 8 9 9 8 8 9 9 9 9 8 9 8 9 8 8 8 8 9 10 10 8 6 7 7 6 7 7 8 8 8 8 7 6 6 6 7 7 7 7 8 8 7 8 9 10 10 10 9 8 7 8 7 7 6 6 6 6 7 7 6 7 8 7 6 8 11 16 22 17 11 8 9 11 13 15 15 13 11 11 11 11 9 8 7 6 6 6 6 5 5 6 6 6 5 5 5 4 5 5 nan
nan 8 9 8 8 8 8 8 8 8 8 8 9 8 8 8 9 9 9 8 8 9 10 10 7 6 7 7 7 8 7 7 8 8 8 7 7 6 7 7 7 8 8 8 7 8 9 10 11 11 11 11 10 9 8 6 5 5 6 8 8 7 6 4 5 6 5 6 8 11 18 21 15 10 9 10 12 14 15 14 12 12 13 13 12 10 8 7 7 6 6 6 5 5 5 6 5 5 5 5 5 5 nan
nan 8 8 8 8 8 8 8 8 8 7 7 8 8 8 8 9 9 9 9 8 8 9 10 9 8 9 10 9 9 9 7 7 8 9 9 8 8 7 6 7 7 9 9 9 8 9 9 9 9 10 11 12 12 11 8 7 6 7 9 10 10 7 4 3 5 6 5 6 8 13 20 20 15 10 10 10 12 14 14 12 12 12 14 14 12 9 8 7 7 6 6 6 6 6 6 5 5 5 5 5 5 nan
nan 9 9 9 8 7 7 8 8 8 8 7 7 7 8 8 9 9 9 9 8 8 8 10 10 9 8 10 10 10 9 9 9 8 8 8 8 8 8 7 7 7 8 9 9 9 9 9 9 9 9 10 12 13 14 12 9 7 7 8 10 12 11 7 4 4 5 4 4 6 8 13 18 20 16 12 12 12 13 14 13 12 12 13 14 13 10 8 8 7 7 6 6 6 6 6 6 6 5 5 5 6 nan
nan 9 9 9 8 8 8 8 9 8 8 8 8 7 7 7 8 9 9 9 9 8 8 8 9 9 7 6 7 8 8 8 9 9 8 7 8 8 8 8 8 8 7 8 8 9 8 9 9 9 9 10 11 13 15 15 12 9 8 8 9 12 13 10 7 5 5 5 5 7 7 7 10 15 18 15 15 15 16 15 13 12 12 12 13 13 11 9 9 8 8 7 7 7 7 7 6 6 6 6 6 6 nan
nan 9 8 9 8 8 9 9 9 9 9 8 8 7 7 7 8 8 8 8 9 8 8 7 8 9 9 6 5 6 7 8 9 10 9 9 9 9 7 7 8 8 8 8 7 7 7 8 8 8 8 8 10 11 14 16 15 12 10 10 8 10 12 12 9 7 4 5 6 7 9 8 6 7 10 12 13 15 16 16 14 13 13 13 13 13 11 10 10 10 9 8 7 7 7 7 7 7 7 6 6 6 nan
nan 8 8 8 8 8 9 9 9 9 8 8 8 8 7 8 7 7 7 8 9 9 10 8 7 8 10 10 8 8 8 9 10 10 10 11 11 11 9 8 8 9 9 7 7 6 5 6 6 6 6 7 8 9 11 13 14 13 12 13 11 11 10 10 10 7 4 4 7 7 8 9 8 5 5 9 10 11 13 15 16 15 14 14 13 13 11 10 11 12 10 8 8 7 7 7 7 7 7 7 6 6 nan
nan 8 9 9 9 9 10 9 9 8 7 8 7 8 9 7 6 6 6 6 8 10 11 11 8 6 7 10 11 11 10 9 9 9 9 10 10 10 10 10 10 10 10 10 9 8 5 4 5 6 6 6 6 6 8 10 10 11 11 12 13 12 10 8 8 6 5 4 7 7 6 7 8 6 5 7 9 10 10 12 15 18 18 16 14 13 10 9 11 12 12 10 8 7 7 7 7 7 7 7 6 6 nan
nan 9 9 9 10 10 9 9 9 9 8 8 8 9 10 9 8 7 6 6 7 9 11 12 12 9 6 7 10 11 10 9 9 8 7 6 7 7 8 9 9 10 11 13 13 14 10 6 6 5 5 6 6 6 5 6 7 7 9 9 11 13 12 9 8 5 5 6 6 6 5 4 5 6 6 7 9 9 9 9 10 14 20 20 18 16 13 10 10 12 13 12 10 8 7 7 7 7 7 7 7 6 nan
nan 8 7 8 9 9 8 9 9 9 9 8 7 7 7 8 8 9 10 8 7 7 9 11 13 13 11 8 9 10 10 9 9 8 7 8 7 6 6 8 8 8 8 11 13 15 15 11 9 7 5 6 7 7 6 6 6 5 7 8 8 11 13 12 11 8 9 9 6 5 6 3 3 4 6 7 8 9 9 8 8 9 13 18 20 20 21 19 14 12 12 13 12 10 9 8 7 7 7 7 7 7 nan
nan 7 7 7 8 8 9 9 9 8 8 8 9 8 8 7 9 11 13 10 8 7 7 9 11 13 14 11 9 9 10 10 10 6 7 10 9 7 6 6 7 8 9 9 11 13 16 15 15 13 9 6 6 7 8 8 8 6 6 7 8 8 10 11 12 12 12 12 10 9 7 5 2 2 5 6 5 7 8 7 8 8 8 10 13 16 19 23 24 19 13 12 12 12 12 11 10 8 7 7 6 6 nan
nan 7 7 7 8 8 10 10 9 8 9 10 11 11 12 11 10 10 11 12 10 9 6 5 7 10 11 11 10 11 10 10 10 6 4 6 8 8 8 6 8 9 10 8 9 11 14 15 17 19 17 12 9 8 9 9 10 9 8 7 8 8 8 8 10 12 14 14 13 13 11 9 5 3 3 5 4 3 5 5 6 7 8 8 8 10 12 15 18 22 20 14 11 10 12 14 13 11 8 7 7 6 nan
nan 6 6 6 7 8 9 10 10 9 10 10 9 10 11 10 9 8 7 9 10 10 8 5 5 6 6 9 9 12 13 12 10 7 5 6 8 9 11 10 9 9 8 9 9 10 11 13 14 18 22 19 15 11 9 8 10 11 10 9 9 10 9 9 9 10 12 14 14 14 12 12 11 9 7 5 5 4 4 4 3 4 7 8 9 9 12 15 16 17 19 17 13 10 11 13 14 14 11 8 7 7 nan
nan 7 6 5 7 7 7 8 9 9 9 9 9 9 8 8 8 8 7 7 8 8 9 8 7 5 5 6 7 10 12 12 11 10 7 6 7 8 10 9 7 8 9 10 9 10 11 11 11 14 18 20 18 13 10 7 7 8 11 10 8 9 10 10 10 9 10 12 13 14 12 10 11 13 10 8 7 7 7 5 3 2 4 6 7 9 12 17 20 17 18 20 17 12 11 12 13 14 14 11 9 7 nan
nan 9 9 7 6 6 7 7 7 8 8 8 8 9 9 10 10 9 9 7 6 6 7 8 8 7 7 6 6 6 9 10 11 11 9 7 5 3 3 6 8 9 11 10 9 8 8 9 10 11 14 17 16 15 13 10 6 5 7 9 7 6 7 9 10 10 10 10 12 14 14 12 13 13 11 7 7 8 8 8 6 4 3 4 5 8 11 13 15 15 18 23 22 17 12 11 11 12 13 12 10 9 nan
nan 10 9 8 6 5 6 7 7 7 7 8 8 9 9 11 10 10 9 9 9 8 7 8 8 6 6 7 7 6 6 9 11 12 11 9 7 2 0 3 6 6 6 8 9 9 9 11 10 12 14 15 14 13 15 14 10 5 5 7 7 5 5 6 8 9 10 9 9 11 13 14 16 16 13 9 9 8 8 8 7 7 6 4 5 7 11 10 7 9 13 19 24 24 17 13 10 9 11 11 10 9 nan
nan 10 9 9 9 7 7 7 8 8 8 7 8 8 8 9 9 9 10 11 11 11 8 9 10 10 6 6 8 8 6 7 10 11 12 12 11 7 3 1 0 -2 -2 1 5 9 11 11 9 8 11 14 15 14 14 15 14 10 8 8 8 7 4 3 4 5 8 8 8 8 10 12 14 15 15 12 12 12 10 7 6 6 7 6 5 6 11 12 6 4 7 11 16 26 25 16 11 9 8 9 8 8 nan
nan 10 10 10 10 10 8 7 8 8 8 7 7 8 8 8 8 8 10 10 10 10 9 8 10 11 10 8 8 9 7 5 5 8 11 13 14 13 8 3 2 0 -2 -2 0 3 7 7 6 3 5 8 13 16 17 17 18 16 14 11 9 8 7 4 1 2 4 6 6 6 7 9 11 12 15 14 12 15 14 9 7 6 7 7 6 5 9 13 10 5 5 8 9 18 25 20 14 10 8 7 7 7 nan
nan 9 10 10 10 10 9 8 8 7 8 8 7 7 8 8 8 8 9 9 9 8 9 8 9 9 11 10 8 9 10 8 6 6 8 11 15 16 14 10 8 7 5 2 2 1 3 4 5 5 5 5 6 10 13 16 18 19 18 17 13 9 9 9 6 3 5 5 5 4 5 7 9 10 13 15 13 15 17 13 9 8 7 7 8 8 8 11 11 9 8 10 9 13 17 18 16 13 10 7 6 6 nan
nan 9 11 12 12 11 11 10 9 8 8 8 8 8 8 8 8 8 8 9 9 9 10 9 9 9 11 11 9 9 11 12 11 9 8 9 11 14 15 14 14 13 10 7 6 6 5 4 4 5 6 6 4 4 4 9 13 15 18 19 17 12 10 12 11 8 8 9 7 5 4 4 6 7 8 11 12 12 17 17 11 8 7 6 7 9 10 9 9 11 12 13 14 14 16 16 16 15 12 9 6 5 nan
nan nan nan nan nan nan nan nan nan nan nan nan nan nan nan nan nan nan nan nan nan nan nan nan nan nan nan nan nan nan nan nan nan nan nan nan nan nan nan nan nan nan nan nan nan nan nan nan nan nan nan nan nan nan nan nan nan nan nan nan nan nan nan nan nan nan nan nan nan nan nan nan nan nan nan nan nan nan nan nan nan nan nan nan nan nan nan nan nan nan nan nan nan nan nan nan nan nan nan nan nan nan nan
CAPE
1429 1367 1432 1663 1882 1882 1935 1727 1570 1570 1507 1399 1347 1347 1199 1007 1007 1017 1053 1011 1011 1045 1154 1151 1147 1147 1001 941 884 884 870 810 765 765 783 752 752 713 578 488 488 410 427 441 391 391 132 3 nan nan nan nan nan nan nan nan nan 0 nan nan nan nan nan 20 84 84 81 97 74 74 53 36 72 72 79 54 54 39 36 39 39 34 28 27 24 24 18 13 22 22 35 29 16 16 19 29 29 45 46 38 38 32 23
1455 1431 1588 1784 1939 1939 1947 1741 1589 1589 1578 1418 1364 1364 1169 982 982 947 1034 988 988 985 1037 1132 1172 1172 1028 925 867 867 810 750 748 748 724 732 732 690 595 532 532 489 473 488 286 286 45 nan nan nan nan nan nan nan nan nan nan nan nan nan nan nan nan 205 114 114 92 89 49 49 19 8 5 5 19 16 16 24 24 26 26 24 14 13 15 15 13 13 26 26 40 34 18 18 22 39 39 53 50 41 41 36 23
1534 1531 1689 1795 1954 1954 1959 1804 1704 1704 1648 1489 1436 1436 1244 1052 1052 964 1057 1012 1012 969 971 1099 1152 1152 1052 950 893 893 796 735 688 688 706 675 675 628 616 582 582 534 555 433 176 176 24 1 nan nan nan nan nan nan nan nan nan nan nan nan nan nan nan 242 168 168 124 63 20 20 9 3 2 2 3 7 7 14 19 21 21 23 12 8 10 10 10 13 29 29 39 38 25 25 35 46 46 51 51 43 43 34 20
1612 1556 1608 1762 1971 1971 1973 1871 1769 1769 1718 1610 1511 1511 1363 1213 1213 1124 1123 1030 1030 988 950 988 1122 1122 1027 971 916 916 866 762 707 707 683 698 698 649 598 601 601 622 531 296 74 74 nan nan nan nan nan nan nan nan nan nan nan nan nan nan nan nan 7 428 254 254 156 53 13 13 2 0 0 0 6 8 8 10 17 26 26 33 21 8 8 8 8 10 29 29 37 42 37 37 49 60 60 54 52 43 43 30 17
1537 1535 1535 1634 1888 1888 1938 1836 1733 1733 1683 1633 1630 1630 1531 1382 1382 1286 1191 1142 1142 1002 966 969 1004 1004 1002 990 937 937 935 834 728 728 696 717 717 713 657 699 699 637 476 184 18 18 nan nan nan nan nan nan nan nan nan nan nan nan nan nan nan nan 287 456 297 297 142 28 6 6 0 0 3 3 8 11 11 14 18 31 31 45 36 12 6 6 6 9 22 22 33 47 56 56 66 69 69 46 46 40 40 30 15
1519 1415 1414 1511 1657 1657 1806 1804 1647 1647 1597 1598 1647 1647 1648 1551 1551 1404 1306 1255 1255 1156 1022 990 989 989 940 970 916 916 914 908 798 798 707 731 731 735 679 802 802 616 366 131 14 14 nan nan nan nan nan nan nan nan nan nan nan nan nan nan nan 32 462 525 322 322 133 22 5 5 3 6 8 8 10 13 13 17 25 39 39 51 39 13 6 6 6 11 23 23 33 58 79 79 98 76 76 49 41 36 36 27 16
1503 1347 1295 1292 1386 1386 1682 1779 1619 1619 1514 1513 1614 1614 1666 1619 1619 1474 1430 1379 1379 1279 1131 1048 970 970 1011 957 899 899 895 936 831 831 725 700 700 753 824 820 820 523 242 99 13 13 nan nan nan nan nan nan nan nan nan nan nan nan nan nan nan 320 581 517 321 321 128 11 7 7 15 20 16 16 13 12 12 18 28 53 53 62 40 17 8 8 10 14 25 25 51 126 146 146 151 107 107 53 44 39 39 29 18
1437 1330 1231 1133 1221 1221 1563 1710 1651 1651 1491 1436 1533 1533 1533 1537 1537 1494 1553 1506 1506 1407 1351 1203 1072 1072 1078 984 883 883 878 873 819 819 713 708 708 767 845 753 753 440 179 68 11 11 nan nan nan nan nan nan nan nan nan 0 0 2 nan nan nan 287 564 469 286 286 125 35 18 18 29 35 26 26 14 8 8 13 23 74 74 133 61 31 10 10 12 18 35 35 119 264 234 234 171 99 99 51 43 38 38 31 22
1418 1314 1215 1074 1113 1113 1396 1591 1635 1635 1526 1418 1512 1512 1458 1409 1409 1465 1523 1579 1579 1531 1476 1372 1224 1224 1134 1044 951 951 859 810 801 801 744 726 726 779 781 693 693 362 143 41 10 10 nan nan nan nan nan nan nan nan nan 6 6 nan nan nan nan 44 476 358 222 222 119 61 98 98 108 79 33 33 16 5 5 6 20 98 98 201 138 49 13 13 11 19 40 40 196 308 267 267 180 68 68 45 39 38 38 33 24
1357 1348 1246 1057 1010 1010 1143 1375 1568 1568 1662 1553 1547 1547 1490 1386 1386 1340 1395 1549 1549 1602 1598 1492 1336 1336 1240 1103 1014 1014 879 832 781 781 728 712 712 709 680 526 526 288 108 18 7 7 0 nan nan nan nan nan nan nan nan 1 1 nan nan nan nan 187 392 254 159 159 127 132 176 176 205 144 57 57 18 2 2 1 15 104 104 182 156 66 21 21 8 17 39 39 158 184 160 160 89 46 46 38 38 39 39 35 28
1302 1291 1232 1088 1041 1041 1126 1309 1450 1450 1597 1693 1636 1636 1528 1418 1418 1317 1368 1470 1470 1622 1619 1512 1404 1404 1305 1167 1032 1032 943 853 805 805 754 698 698 683 543 408 408 218 60 4 3 3 nan nan nan nan nan nan nan nan nan 1 1 nan nan 4 4 339 370 211 142 142 155 194 216 216 217 151 77 77 17 3 3 0 7 107 107 151 141 82 27 27 7 12 33 33 85 112 102 102 46 36 36 34 37 38 38 38 31
1290 1234 1222 1122 1072 1072 1155 1240 1382 1382 1527 1727 1725 1725 1668 1555 1555 1396 1345 1445 1445 1644 1640 1534 1475 1475 1325 1235 1146 1146 1011 876 831 831 780 725 725 585 482 303 303 135 35 1 nan nan nan nan nan nan nan nan nan nan nan 0 0 nan nan 23 23 319 349 220 170 170 213 260 233 233 180 154 83 83 21 4 4 nan 1 75 75 116 152 104 30 30 13 8 21 21 40 54 44 44 34 33 33 32 38 35 35 36 34
1188 1178 1120 932 1058 1058 1049 1179 1315 1315 1408 1602 1705 1705 1753 1694 1694 1532 1426 1424 1424 1571 1668 1562 1405 1405 1399 1306 1265 1265 1079 988 856 856 810 713 713 571 398 236 236 87 7 nan nan nan nan nan nan nan nan nan nan nan nan nan nan nan nan 221 221 383 387 278 226 226 278 254 229 229 174 122 73 73 26 5 5 nan 0 34 34 96 145 130 35 35 19 10 13 13 25 37 33 33 33 29 29 26 36 34 34 33 33
963 1038 732 535 956 956 990 1117 1251 1251 1294 1385 1481 1481 1678 1778 1778 1618 1508 1406 1406 1504 1601 1595 1438 1438 1382 1285 1243 1243 1104 966 880 880 799 703 703 525 325 177 177 49 1 nan nan nan nan nan nan nan nan nan nan nan nan nan nan nan nan 280 280 454 456 369 342 342 346 296 226 226 152 99 52 52 32 7 7 nan 0 27 27 84 146 140 45 45 24 15 10 10 17 27 31 31 28 26 26 29 33 33 33 34 30
449 59 nan 294 785 785 896 1015 1096 1096 1276 1273 1366 1366 1559 1611 1611 1603 1542 1389 1389 1485 1537 1584 1430 1430 1324 1224 1130 1130 993 904 777 777 707 580 580 451 263 128 128 30 5 nan nan nan nan nan nan nan nan nan nan nan nan nan nan nan 5 319 319 529 529 438 412 412 391 312 237 237 166 97 49 49 20 8 8 1 0 22 22 75 141 146 55 55 26 22 14 14 14 23 29 29 30 30 30 33 33 29 29 30 27
nan nan nan 202 541 541 819 972 1044 1044 1167 1254 1253 1253 1346 1443 1443 1536 1527 1421 1421 1418 1470 1475 1378 1378 1229 1034 853 853 648 805 648 648 581 505 505 323 189 74 74 28 nan nan nan nan nan nan nan nan nan nan nan nan nan nan nan nan 57 416 416 574 573 544 488 488 462 380 296 296 196 75 34 34 12 7 7 3 2 23 23 85 130 189 80 80 28 20 17 17 17 22 29 29 33 35 35 34 31 29 29 30 25
nan nan nan 128 448 448 744 889 1003 1003 1075 1150 1097 1097 1093 1228 1228 1320 1411 1405 1405 1400 1400 1406 1317 1317 1087 824 732 732 67 303 492 492 432 323 323 219 109 44 44 nan nan nan nan nan nan nan nan nan nan nan nan nan nan nan nan nan 79 458 458 621 619 622 534 534 480 396 311 311 231 84 19 19 8 4 4 2 3 18 18 51 125 171 103 103 31 17 18 18 23 22 31 31 33 36 36 36 33 32 32 29 24
nan nan 12 99 358 358 664 800 911 911 985 1058 961 961 995 1031 1031 1115 1204 1293 1293 1335 1333 1287 1153 1153 937 698 206 206 40 20 265 265 153 232 232 131 60 9 9 nan nan nan nan nan nan nan nan nan nan nan nan nan nan nan nan nan 142 534 534 711 707 708 579 579 498 446 359 359 248 77 15 15 3 2 2 1 4 14 14 38 100 172 151 151 35 18 20 20 24 24 28 28 30 34 34 35 33 29 29 25 20
nan nan 3 103 298 298 554 714 816 816 886 961 911 911 946 980 980 929 879 1089 1089 1219 1265 1173 995 995 748 566 183 183 0 73 98 98 nan 30 30 9 nan nan nan nan nan nan nan nan nan nan nan nan nan nan nan nan nan nan nan nan 99 617 617 729 767 727 629 629 542 459 380 380 246 91 11 11 1 0 0 1 8 19 19 29 58 139 239 239 44 23 24 24 29 26 29 29 31 32 32 34 33 29 29 25 20
nan nan 10 102 162 162 236 438 616 616 708 769 554 554 830 948 948 824 701 690 690 716 826 869 791 791 679 473 191 191 nan nan 10 10 nan nan nan nan nan nan nan nan nan nan nan nan nan nan nan nan nan nan nan nan nan nan nan nan 106 615 615 810 857 817 701 701 570 482 399 399 277 142 55 55 27 24 24 79 159 171 171 87 63 111 151 151 41 37 36 36 34 34 30 30 30 32 32 33 31 26 26 19 17
nan nan 15 117 142 142 153 348 575 575 662 685 129 129 109 115 115 625 552 446 446 564 734 688 326 326 280 494 277 277 44 1 18 18 1 nan nan nan nan nan nan nan nan nan nan nan nan nan nan nan nan nan nan nan nan nan nan nan 135 598 598 793 840 845 728 728 593 503 419 419 317 201 101 101 67 63 63 132 215 325 325 189 103 111 137 137 85 40 35 35 30 37 33 33 32 31 31 34 31 25 25 18 18
nan 27 135 203 195 195 226 425 631 631 721 642 448 448 330 103 103 61 92 74 74 107 145 200 84 84 265 414 374 374 168 73 45 45 41 8 8 18 24 nan nan nan nan nan nan nan nan nan nan nan nan nan nan nan nan nan nan nan 184 655 655 818 864 870 758 758 616 556 470 470 366 243 156 156 116 97 97 153 296 385 385 226 130 134 148 148 125 47 35 35 32 35 33 33 31 31 31 34 32 24 24 21 20
nan 109 179 258 324 324 426 536 653 653 780 232 658 658 553 314 314 111 56 7 7 nan nan 28 108 108 106 369 412 412 274 152 116 116 92 72 72 45 44 5 5 nan nan nan nan nan nan nan nan nan nan nan nan nan nan nan nan 0 214 680 680 803 888 894 782 782 675 606 517 517 410 310 216 216 152 130 130 150 266 386 386 260 159 153 151 151 169 55 35 35 33 35 36 36 32 31 31 32 32 28 28 24 24
nan 30 249 292 339 339 444 556 674 674 731 493 680 680 639 533 533 380 247 99 99 38 55 128 93 93 104 201 335 335 339 189 125 125 90 71 71 55 44 18 18 nan nan nan nan nan nan nan nan nan nan nan nan nan nan nan nan 1 185 596 596 789 871 916 803 803 736 664 594 594 476 373 255 255 170 130 130 129 219 366 366 278 209 205 232 232 163 61 37 37 34 38 37 37 33 31 31 29 32 29 29 26 27
nan nan 136 302 379 379 401 574 597 597 682 672 666 666 660 585 585 484 391 306 306 253 227 247 193 193 88 129 243 243 352 255 140 140 91 59 59 47 39 22 22 7 0 nan nan nan nan nan nan nan nan nan nan nan nan nan nan nan 143 487 487 776 937 978 861 861 755 686 614 614 491 415 297 297 209 148 148 129 180 313 313 298 249 255 250 250 198 68 36 36 35 35 39 39 34 28 28 33 30 29 29 28 28
nan nan 4 140 261 261 385 499 554 554 575 660 684 684 646 573 573 472 408 348 348 291 290 313 235 235 208 127 141 141 235 289 195 195 120 52 52 40 30 15 15 6 2 nan nan nan nan nan nan nan nan nan nan nan nan nan nan nan 65 330 330 724 962 1001 880 880 810 745 639 639 572 461 341 341 250 167 167 130 166 277 277 269 254 263 244 244 207 76 39 39 30 35 36 36 36 30 30 31 30 30 30 28 26
nan nan nan nan 79 79 270 456 482 482 474 523 641 641 603 532 532 461 424 335 335 279 255 302 298 298 297 247 158 158 152 282 263 263 168 74 74 39 28 9 9 1 0 nan nan nan nan nan nan nan nan nan nan nan nan nan nan nan 10 200 200 603 989 1027 944 944 870 765 736 736 631 537 381 381 291 205 205 162 163 220 220 213 229 233 206 206 180 83 41 41 34 34 35 35 38 33 33 33 32 31 31 27 22
nan nan nan nan 172 172 234 260 358 358 327 425 601 601 595 493 493 453 444 379 379 294 269 315 338 338 338 290 267 267 238 258 280 280 230 144 144 57 20 12 12 0 nan nan nan nan nan nan nan nan nan nan nan nan nan nan nan nan nan 79 79 431 853 1056 972 972 935 823 755 755 691 559 446 446 307 221 221 159 159 159 159 179 211 228 195 195 155 66 45 45 32 35 34 34 37 37 37 37 35 32 32 27 20
nan nan nan nan 62 62 395 343 226 226 227 447 594 594 618 516 516 446 465 427 427 312 285 329 380 380 380 356 309 309 286 281 304 304 252 206 206 96 13 nan nan nan nan nan nan nan nan nan nan nan nan nan nan nan nan nan nan nan nan 9 9 231 615 960 960 960 1000 925 851 851 744 647 522 522 344 233 233 175 194 194 194 179 174 207 191 191 146 76 53 53 41 37 36 36 38 38 38 36 38 33 33 26 18
nan nan nan nan nan nan nan 382 499 499 233 406 648 648 642 568 568 466 457 419 419 358 328 323 344 344 397 371 325 325 303 302 301 301 251 180 180 115 23 nan nan nan nan nan nan nan nan nan nan nan nan nan nan nan nan nan nan nan nan nan nan 68 387 710 866 866 1025 989 913 913 799 701 542 542 383 246 246 188 249 253 253 197 193 188 186 186 172 112 72 72 58 60 35 35 37 38 38 40 39 34 34 28 18
nan nan nan nan nan nan nan nan 228 228 422 389 664 664 660 589 589 517 391 412 412 378 323 296 340 340 362 362 340 340 294 295 297 297 274 182 182 111 46 nan nan nan nan nan nan nan nan nan nan nan nan nan nan nan nan nan nan nan nan nan nan nan 125 441 702 702 927 930 934 934 898 755 590 590 421 279 279 219 333 312 312 250 191 170 184 184 183 151 104 104 77 69 41 41 37 39 39 39 41 36 36 30 20
nan nan nan nan nan nan nan nan nan nan 120 378 616 616 612 576 576 539 382 376 376 372 345 294 314 314 358 381 356 356 282 238 243 243 223 202 202 124 55 nan nan nan nan nan nan nan nan nan nan nan nan nan nan nan nan nan nan nan nan nan nan nan 11 176 436 436 728 874 877 877 845 740 606 606 458 312 312 272 424 429 429 328 224 185 199 199 235 216 162 162 102 92 48 48 40 39 39 40 40 38 38 30 22
nan nan nan nan nan nan nan nan nan nan nan 228 454 454 600 594 594 559 430 316 316 183 269 291 288 288 330 376 374 374 296 228 233 233 153 136 136 103 62 1 1 nan nan nan nan nan nan nan nan nan nan nan nan nan nan nan nan nan nan nan nan nan nan 36 193 193 461 654 757 757 835 730 627 627 473 348 348 355 525 505 505 423 299 217 232 232 250 272 214 214 128 117 66 66 44 38 38 41 39 36 36 32 24
nan nan nan nan nan nan nan nan nan nan nan nan 226 226 532 617 617 517 451 285 285 17 17 218 238 238 257 324 346 346 316 242 244 244 205 112 112 44 34 6 6 nan nan nan nan nan nan nan nan nan nan nan nan nan nan nan nan nan nan nan nan nan nan nan 45 45 139 371 646 646 785 754 649 649 520 387 387 449 575 615 615 498 362 269 268 268 265 311 248 248 161 129 101 101 48 40 40 40 37 34 34 32 24
nan nan nan nan nan nan nan nan nan nan nan nan 2 2 166 359 359 394 386 242 242 22 21 147 209 209 209 275 345 345 341 262 235 235 261 178 178 50 31 17 17 2 nan nan nan nan nan nan nan nan nan nan nan nan nan nan nan nan nan nan nan nan nan nan nan nan 13 140 450 450 738 739 671 671 539 513 513 522 658 732 732 605 430 324 327 327 303 382 313 313 214 176 125 125 62 41 41 36 37 34 34 32 25
nan nan nan nan nan nan nan nan nan nan nan nan nan nan nan 129 129 313 469 354 354 216 83 109 199 199 201 246 294 294 317 310 279 279 274 253 253 149 115 48 48 16 21 nan nan nan nan nan nan nan nan nan nan nan nan nan nan nan nan nan nan nan nan nan nan nan nan 9 193 193 531 694 693 693 626 594 594 634 746 721 721 658 505 387 390 390 369 456 386 386 267 184 151 151 78 49 49 38 35 34 34 33 27
nan nan nan nan nan nan nan nan nan nan nan nan nan nan nan 100 100 260 401 360 360 326 192 163 216 216 212 235 263 263 290 335 327 327 294 291 291 267 200 124 124 35 79 35 3 3 nan nan nan nan nan nan nan nan nan nan nan nan nan nan nan nan nan nan nan nan nan nan 17 17 276 617 716 716 716 682 682 721 731 739 739 645 525 436 407 407 437 503 493 493 334 216 201 201 131 64 64 38 35 33 33 33 28
nan nan nan nan nan nan nan nan nan nan nan nan nan nan nan 36 36 163 319 283 283 188 215 224 259 259 251 248 250 250 256 281 325 325 318 312 312 282 255 210 210 82 114 103 52 52 12 nan nan nan nan nan nan nan nan nan nan nan nan nan nan nan nan nan nan nan nan nan nan nan 49 370 673 673 809 775 775 742 713 688 688 660 540 457 400 400 454 549 540 540 377 248 254 254 176 96 96 43 35 35 35 36 29
nan nan nan nan nan nan nan nan nan nan nan nan nan nan nan 3 3 17 136 315 315 156 178 245 280 280 274 246 241 241 242 245 269 269 266 286 286 307 299 222 222 153 135 121 68 68 29 nan nan nan nan nan nan nan nan nan nan nan nan nan nan nan nan nan nan nan nan nan nan nan nan 102 418 418 730 834 834 764 732 669 669 611 584 501 420 420 417 536 555 555 450 262 244 244 226 154 154 92 43 36 36 34 31
nan nan nan nan nan nan nan nan nan nan nan nan nan nan nan nan nan 0 21 246 246 267 207 230 236 236 272 268 218 218 211 230 232 232 211 257 257 232 205 198 198 167 142 109 99 99 33 3 nan nan nan nan nan nan nan nan nan nan nan nan nan nan nan nan nan nan nan nan nan nan nan 3 150 150 527 754 754 788 721 658 658 600 572 548 466 466 410 494 535 535 493 305 233 233 259 199 199 131 77 42 42 42 34
nan nan nan nan nan nan nan nan nan nan nan nan nan nan nan nan nan nan 6 18 18 155 237 290 249 249 256 244 237 237 188 200 220 220 198 200 200 182 141 155 155 144 138 116 91 91 58 10 nan nan nan nan nan nan nan nan nan nan nan nan nan nan nan nan nan nan nan nan nan nan nan nan 27 27 246 548 548 711 677 678 678 559 530 567 543 543 458 429 489 489 504 371 246 246 247 250 250 194 144 86 86 62 47
nan nan nan nan nan nan nan nan nan nan nan nan nan nan nan nan nan nan nan 0 0 26 128 300 307 307 204 189 219 219 184 157 171 171 167 166 166 148 93 109 109 122 116 97 97 97 51 2 nan nan nan nan nan nan nan nan nan nan nan nan nan nan nan nan nan nan nan nan nan nan nan nan nan nan 59 288 288 510 573 603 603 457 461 525 562 562 478 451 480 480 486 467 363 363 312 288 288 245 189 122 122 96 61
nan nan nan nan nan nan nan nan nan nan nan nan nan nan nan nan nan nan nan nan nan nan nan 20 239 239 356 274 194 194 178 123 91 91 120 135 135 113 50 49 49 24 24 48 46 46 23 2 nan nan nan nan nan nan nan nan nan nan nan nan nan nan nan nan nan nan nan nan nan nan nan nan nan nan nan nan nan 13 80 87 87 62 159 362 536 536 547 497 500 500 470 497 500 500 505 452 452 403 329 240 240 183 131
nan nan nan nan nan nan nan nan nan nan nan nan nan nan nan nan nan nan nan nan nan nan nan nan 59 59 295 394 310 310 227 172 121 121 95 105 105 67 4 34 34 13 4 6 5 5 1 nan nan nan nan nan nan nan nan nan nan nan nan nan nan nan nan nan nan nan nan nan nan nan nan nan nan nan nan nan nan nan nan nan nan nan 55 305 583 583 559 546 498 498 468 491 487 487 518 495 495 445 369 301 301 238 157
nan nan nan nan nan nan nan nan nan nan nan nan nan nan nan nan nan nan nan nan nan nan nan nan 0 0 93 303 330 330 303 204 137 137 97 72 72 52 21 24 24 19 13 2 1 1 nan nan nan nan nan nan nan nan nan nan nan nan nan nan nan nan nan nan nan nan nan nan nan nan nan nan nan nan nan nan nan nan nan nan nan nan 6 227 514 514 543 497 486 486 523 489 480 480 475 479 479 489 442 368 368 298 209
nan nan nan nan nan nan nan nan nan nan nan nan nan nan nan nan nan nan nan nan nan nan 0 0 1 1 7 68 183 183 255 237 154 154 110 75 75 55 42 29 29 25 19 14 4 4 1 nan nan nan nan nan nan nan nan nan nan nan nan nan nan nan nan nan nan nan nan nan nan nan nan nan nan nan nan nan nan nan nan nan nan nan nan 80 370 370 505 367 411 411 512 511 503 503 496 496 496 475 458 438 438 365 241
nan nan nan nan nan nan nan nan nan nan nan nan nan nan nan nan nan nan nan nan nan nan 0 1 3 3 6 23 83 83 188 198 166 166 161 115 115 82 60 42 42 28 18 11 8 8 6 4 1 1 nan nan nan nan nan nan nan nan nan nan nan nan nan nan nan nan nan nan nan nan nan nan nan nan nan nan nan nan nan nan nan nan nan nan 128 128 310 185 286 286 465 528 553 553 516 516 516 494 474 514 514 405 277
nan nan nan nan nan nan nan nan nan nan nan nan nan nan nan nan nan nan nan nan nan nan 1 8 9 9 14 18 35 35 79 88 115 115 172 164 164 119 91 80 80 59 38 25 14 14 14 13 13 13 7 1 nan nan nan nan nan nan nan nan nan nan nan nan nan nan nan nan nan nan nan nan nan nan nan nan nan nan nan nan nan nan nan nan nan nan 80 2 68 68 335 544 602 602 566 536 536 481 521 563 563 479 344
nan nan nan nan nan nan nan nan nan nan nan nan nan nan nan nan nan nan nan nan nan nan nan 10 30 30 35 29 31 31 47 63 110 110 164 132 132 101 75 83 83 93 83 62 40 40 34 30 27 27 19 11 4 4 1 nan nan nan nan nan nan nan nan nan nan nan nan nan nan nan nan nan nan nan nan nan nan nan nan nan nan nan nan nan nan nan nan nan nan nan 127 526 619 619 648 585 585 526 504 579 579 527 414
nan nan nan nan nan nan nan nan nan nan nan nan nan nan nan nan nan nan nan nan nan nan nan 8 17 17 51 58 50 50 51 49 99 99 136 119 119 77 49 43 43 42 49 64 71 71 55 43 31 31 20 14 14 14 12 3 3 0 0 2 2 1 nan nan nan nan nan nan nan nan nan nan nan nan nan nan nan nan nan nan nan nan nan nan nan nan nan nan nan nan nan 346 575 575 634 571 571 574 516 561 561 576 492
nan nan nan nan nan nan nan nan nan nan nan nan nan nan nan nan nan nan nan nan nan nan nan 6 6 6 37 73 62 62 52 57 99 99 67 72 72 67 49 22 22 13 11 17 41 41 58 56 35 35 22 13 13 13 15 14 14 7 5 7 7 6 2 nan nan nan nan nan nan nan nan nan nan nan nan nan nan nan nan nan nan nan nan nan nan nan nan nan nan nan nan 166 366 366 420 529 529 588 593 575 575 562 543
nan nan nan nan nan nan nan nan nan nan nan nan nan nan nan nan nan nan nan nan nan nan nan 4 13 13 30 66 78 78 66 75 99 99 72 61 61 62 63 48 48 33 7 0 7 7 49 72 60 60 41 26 23 23 20 21 21 21 16 14 14 12 7 1 nan nan nan nan nan nan nan nan nan nan nan nan nan nan nan nan nan nan nan nan nan nan nan nan nan nan nan 19 205 205 181 380 380 546 581 592 592 609 593
nan nan nan nan nan nan nan nan nan nan nan nan nan nan nan nan nan nan nan nan nan nan nan nan 4 4 23 35 78 78 92 88 105 105 111 66 66 45 52 63 63 41 7 7 2 2 2 26 60 60 52 41 38 38 25 20 20 26 22 20 20 9 2 0 nan nan nan nan nan nan nan nan nan nan nan nan nan nan nan nan nan nan nan nan nan nan nan nan nan nan nan nan 58 58 33 214 214 454 572 581 581 655 672
nan nan nan nan nan nan nan nan nan nan nan nan nan nan nan nan nan nan nan nan nan nan nan nan nan nan 9 14 42 42 90 112 114 114 128 86 86 53 57 51 51 40 14 18 5 5 nan nan 5 5 22 28 34 34 26 19 19 17 20 19 19 13 5 3 0 0 0 nan nan nan nan nan nan nan nan nan nan nan nan nan nan nan nan nan nan nan nan nan nan nan nan nan nan nan nan 129 129 368 509 602 602 675 689
nan nan nan nan nan nan nan nan nan nan nan nan nan nan nan nan nan nan nan nan nan nan nan nan nan nan 2 6 14 14 43 138 122 122 136 132 132 78 73 50 50 38 24 27 14 14 nan nan nan nan nan 11 25 25 21 12 12 12 11 12 12 12 11 3 0 0 1 nan nan nan nan nan nan nan nan nan nan nan nan nan nan nan nan nan nan nan nan nan nan nan nan nan nan nan nan 66 66 186 451 565 565 661 738
nan nan nan nan nan nan nan nan nan nan nan nan nan nan nan nan nan nan nan nan nan nan nan nan nan nan nan 1 3 3 9 84 152 152 160 153 153 131 112 72 72 44 29 13 7 7 0 nan nan nan nan nan 13 13 22 7 7 2 1 1 1 3 7 8 3 3 2 nan nan nan nan nan nan nan nan nan nan nan nan nan nan nan nan nan nan nan nan nan nan nan nan nan nan nan nan 6 6 135 444 583 583 682 721
nan nan nan nan nan nan nan nan nan nan nan nan nan nan nan nan nan nan nan nan nan nan nan nan nan nan nan nan 0 0 1 12 119 119 194 187 187 160 143 116 116 78 37 3 nan nan nan nan nan nan nan nan 10 10 20 12 12 6 3 nan nan nan 1 7 6 6 2 0 nan nan nan nan nan nan nan nan nan nan nan nan nan nan nan nan nan nan nan nan nan nan nan nan nan nan nan nan nan 132 495 666 666 670 741
nan nan nan nan nan nan nan nan nan nan nan nan nan nan nan nan nan nan nan nan nan nan nan nan nan nan nan nan nan nan 5 4 22 22 153 241 241 203 168 129 129 99 64 32 4 4 nan nan nan nan nan nan 2 2 29 30 30 24 14 5 5 2 2 3 8 8 5 1 nan nan nan nan nan nan nan nan nan nan nan nan nan nan nan nan nan nan nan nan nan nan nan nan nan nan nan 4 4 75 460 661 661 690 728
nan nan nan nan nan nan nan nan nan nan nan nan nan nan nan nan nan nan nan nan nan nan nan nan nan nan nan nan 0 0 8 7 6 6 44 195 195 270 222 159 159 132 111 79 40 40 16 0 nan nan nan nan nan nan 12 50 50 45 30 18 18 11 9 12 13 13 11 5 1 1 1 nan nan nan nan nan nan nan nan nan nan nan nan nan nan nan nan nan nan nan nan nan nan nan nan 2 2 60 397 623 623 682 715
nan nan nan nan nan nan nan nan nan nan nan nan nan nan nan nan nan nan nan nan nan nan nan nan nan nan nan nan 3 3 9 10 8 8 19 82 82 158 250 227 227 179 148 114 79 79 46 29 13 13 1 nan nan nan nan 19 19 55 47 29 29 23 24 23 15 15 13 8 5 5 3 nan nan nan nan nan nan nan nan nan nan nan nan nan nan nan nan nan nan nan nan nan nan nan nan 2 2 45 282 589 589 614 672
nan nan nan nan nan nan nan nan nan nan nan nan nan nan nan nan nan nan nan nan nan nan nan nan nan nan nan nan 0 0 13 13 12 12 27 50 50 62 147 228 228 232 187 153 123 123 86 60 34 34 23 12 5 5 nan nan nan 30 54 46 46 33 35 32 16 16 8 5 7 7 6 0 0 0 nan nan nan nan nan nan nan nan nan nan nan nan nan nan nan nan nan nan nan nan nan 0 0 29 194 491 491 537 658